EDT,Max TemperatureF,Mean TemperatureF,Min TemperatureF,Max Dew PointF,MeanDew PointF,Min DewpointF,Max Humidity, Mean Humidity, Min Humidity, Max Sea Level PressureIn, Mean Sea Level PressureIn, Min Sea Level PressureIn, Max VisibilityMiles, Mean VisibilityMiles, Min VisibilityMiles, Max Wind SpeedMPH, Mean Wind SpeedMPH, Max Gust SpeedMPH,PrecipitationIn, CloudCover, Events, WindDirDegrees
2013-7-1,84,74,64,67,65,64,100,78,55,29.93,29.85,29.78,10,10,5,20,3,26,0.69,6,Rain-Thunderstorm,148
2013-7-2,84,74,63,69,65,62,100,79,58,30.04,29.97,29.91,10,6,0,9,2,25,0.00,5,Fog,128
2013-7-3,85,77,68,72,69,66,93,77,61,30.14,30.10,30.04,10,9,5,10,3,28,0.11,4,Rain,169
2013-7-4,81,75,68,72,69,65,97,86,74,30.21,30.15,30.10,10,6,0,10,3,16,0.99,6,Rain-Thunderstorm,104
2013-7-5,84,76,68,72,69,66,93,79,65,30.17,30.13,30.10,10,9,2,14,2,25,0.32,6,Rain,172
2013-7-6,87,78,68,72,70,67,100,81,61,30.17,30.13,30.05,10,5,0,25,4,37,1.55,5,Fog-Rain-Thunderstorm,167
2013-7-7,81,74,67,72,68,66,100,87,74,30.16,30.10,30.04,10,6,1,13,3,18,1.14,6,Rain,164
2013-7-8,86,76,66,72,68,64,100,76,51,30.17,30.12,30.08,10,7,0,10,3,15,T,1,Fog,203
2013-7-9,90,82,73,75,71,69,93,73,52,30.11,30.07,30.01,10,10,9,14,5,17,T,4,Rain,212
2013-7-10,90,79,68,76,71,66,97,80,63,30.02,29.96,29.86,10,8,1,24,6,41,0.66,3,Rain,203
2013-7-11,83,75,67,70,67,64,100,84,67,30.00,29.96,29.91,10,4,0,14,4,33,0.06,6,Fog-Rain,349
2013-7-12,82,72,61,63,59,57,84,67,49,30.06,30.01,29.97,10,10,10,16,6,22,0.00,2,,16
2013-7-13,85,73,61,67,63,59,97,76,55,30.14,30.09,30.04,10,10,5,10,5,30,0.00,2,,77
2013-7-14,89,80,71,72,69,66,93,74,55,30.24,30.18,30.13,10,10,10,14,5,20,0.00,2,,107
2013-7-15,92,80,68,72,69,67,97,71,44,30.32,30.27,30.23,10,10,10,7,2,12,0.00,0,,118
2013-7-16,94,83,71,73,70,68,93,69,44,30.33,30.28,30.24,10,10,7,7,1,9,0.00,1,,41
2013-7-17,95,84,73,79,73,70,94,72,49,30.30,30.23,30.17,10,8,1,16,3,25,0.17,2,Rain-Thunderstorm,340
2013-7-18,95,85,74,77,74,70,100,73,46,30.22,30.15,30.04,10,4,0,7,2,9,0.00,3,Fog,199
2013-7-19,92,83,73,76,73,69,100,76,52,30.08,30.02,29.93,10,4,0,16,5,23,0.00,2,Fog-Thunderstorm,205
2013-7-20,92,81,70,73,71,69,93,73,52,29.96,29.92,29.86,10,9,3,18,6,26,0.05,2,Rain-Thunderstorm,218
2013-7-21,86,77,68,72,70,68,100,81,61,30.00,29.94,29.89,10,5,0,13,3,16,0.09,5,Fog-Rain,75
2013-7-22,84,78,71,72,70,69,93,81,69,29.94,29.85,29.78,10,6,0,13,3,21,0.85,6,Fog-Rain-Thunderstorm,216
2013-7-23,88,79,69,71,69,66,97,76,55,29.85,29.80,29.75,10,8,4,20,5,28,0.07,6,Rain-Thunderstorm,247
2013-7-24,79,72,65,68,66,59,97,77,56,29.95,29.85,29.76,10,6,0,16,5,23,0.65,5,Fog-Rain-Thunderstorm,16
2013-7-25,79,69,59,59,57,56,97,72,47,30.08,30.02,29.96,10,10,8,9,3,12,0.00,1,,20
2013-7-26,82,69,55,64,58,54,100,74,47,30.10,30.06,29.98,10,5,0,8,1,12,0.00,0,Fog,132
2013-7-27,79,72,64,66,64,62,100,80,60,29.98,29.92,29.87,10,7,2,13,4,23,0.43,5,Rain,236
2013-7-28,76,67,57,64,60,52,93,70,46,30.07,29.96,29.89,10,6,0,13,4,18,T,4,Rain,232
2013-7-29,80,67,53,62,55,52,93,68,43,30.19,30.13,30.07,10,8,0,12,3,15,0.00,3,Fog,218
2013-7-30,83,71,59,66,61,57,97,74,51,30.24,30.19,30.14,10,8,1,8,2,10,0.00,2,,208
2013-7-31,74,70,66,67,65,64,93,86,79,30.14,30.06,29.96,10,7,2,7,2,10,0.07,7,Rain,154